Home > Time Zones > World Clock > Weather > U.S.A. > Napa > Past weeks

Flag for U.S.A. Weather past 2 weeks in Napa, California, U.S.A.

Now
62 °F

Sunny.


Feels Like: 62 °F
Forecast: 42 / 67 °F
Wind: 3 mph from Southwest

Location: Napa County Airport

Current Time: Jan 29, 2015 at 5:27:42 PM

Latest Report: Jan 29, 2015 at 4:54 PM


Visibility: 10 mi

Pressure: 30.03 "Hg

Humidity: 60%

Dew point: 48 °F

Location of NapaLocation

Historic Weather in Napa — Graph

°F

Napa temperature yesterday

Maximum temperature yesterday: 64 °F (at 2:54 PM)
Minimum temperature yesterday: 43 °F (at 7:54 AM)
Average temperature yesterday: 51 °F

Past Weeks' High & Low Weather Summary

 TemperatureHumidityPressure
High65 °F (Jan 29, 3:54 PM)100% (Jan 14, 8:54 PM)30.36 "Hg (Jan 14, 8:54 PM)
Low33 °F (Jan 21, 4:54 AM)52% (Jan 29, 3:54 PM)29.93 "Hg (Jan 26, 2:54 PM)
Average49 °F90%30.18 "Hg
* Reported Jan 14 3:54 PM — Jan 29 3:54 PM, Napa, Weather by CustomWeather, © 2014

Note: Actual official high and low records may vary slightly from our data, if they occured in-between our weather recording intervals... More about our weather records

Advertising

Napa weather history for previous 24 hours

 ConditionsComfort  
Time TempWeatherWind HumidityBarometerVisibility
3:54 PM
Jan 29
65 °FSunny.No wind52%30.04 "Hg10 mi
2:54 PM64 °FSunny.3 mph56%30.05 "Hg10 mi
1:54 PM63 °FSunny.8 mph63%30.06 "Hg10 mi
12:54 PM61 °FSunny.7 mph67%30.08 "Hg10 mi
11:54 AM58 °FSunny.5 mph75%30.11 "Hg10 mi
10:54 AM55 °FSunny.3 mph83%30.14 "Hg10 mi
9:54 AM52 °FSunny.No wind86%30.14 "Hg10 mi
8:54 AM47 °FSunny.No wind100%30.14 "Hg10 mi
7:54 AM39 °FSunny.No wind100%30.14 "Hg10 mi
6:54 AM38 °FClear.No wind100%30.13 "Hg10 mi
5:54 AM39 °FClear.No wind100%30.12 "Hg7 mi
4:54 AM42 °FClear.7 mph96%30.11 "Hg10 mi
3:54 AM41 °FClear.3 mph100%30.12 "Hg10 mi
2:54 AM41 °FFog.No wind100%30.14 "Hg3 mi
1:54 AM44 °FClear.3 mph96%30.14 "Hg10 mi
12:54 AM44 °FClear.3 mph96%30.14 "Hg10 mi
11:54 PM
Jan 28
44 °FClear.No wind96%30.14 "Hg10 mi
10:54 PM43 °FClear.No wind100%30.14 "Hg10 mi
9:54 PM47 °FClear.3 mph93%30.14 "Hg10 mi
8:54 PM46 °FClear.No wind93%30.14 "Hg10 mi
7:54 PM50 °FClear.3 mph89%30.14 "Hg10 mi
6:54 PM53 °FClear.6 mph83%30.14 "Hg10 mi
5:54 PM55 °FClear.6 mph80%30.13 "Hg10 mi
Weather by CustomWeather, © 2014

See weather overviewHow to use our weather pages